Regional Weather Roundup
Issued by NWS New Orleans/Baton Rouge, LA

Home | Current Version | Previous Version | Text Only | Print | Product List | Glossary On
Versions: 1 2 3 4 5 6 7 8 9 10 11 12 13 14 15 16 17 18 19 20 21 22 23 24 25 26 27 28 29 30 31 32 33 34 35 36 37 38 39 40 41 42 43 44 45 46 47 48 49 50
696
ASUS44 KLIX 281110
RWRLIX
NEW ORLEANS REGIONAL WEATHER ROUNDUP
NATIONAL WEATHER SERVICE NEW ORLEANS LA
600 AM CDT THU AUG 28 2014

NOTE: "FAIR" INDICATES FEW OR NO CLOUDS BELOW 12,000 FEET WITH NO
      SIGNIFICANT WEATHER AND/OR OBSTRUCTIONS TO VISIBILITY.
      SKY/WX - SKY CONDITION AND SIGNIFICANT WEATHER.
      TMP - AIR TEMPERATURE.     DP    - DEWPOINT TEMPERATURE.
      RH  - RELATIVE HUMIDITY.   PRES  - PRESSURE.
      HI  - HEAT INDEX.          WCI   - WIND CHILL INDEX.

*  THESE STATIONS ARE NOT NWS OR FAA STATIONS AND ARE NOT UNDER
   NWS QUALITY CONTROL.

LAZ038-040-048-061>063-065>067-069-281200-
SOUTHEAST LOUISIANA

CITY           SKY/WX    TMP DP  RH WIND       PRES   REMARKS
N.O. AUDUBON     N/A     82  76  83 MISG        N/A
N.O. INTL ARPT MOCLDY    80  74  81 E3        29.97R
N.O. LAKEFRONT PTCLDY    81  75  82 E5        29.97S
N.O. DOWNTOWN*   N/A     81  72  74 CALM      29.97S
SLIDELL        PTCLDY    75  72  90 CALM      29.97S
BATON ROUGE    PTCLDY    76  74  93 NE5       29.97S
BOOTHVILLE     MOCLDY    82  76  81 CALM      29.97R
BELLE CHASSE   MOCLDY    76  72  87 CALM      29.96S
BOGALUSA*        N/A     74  71  89 CALM      30.00S
GALLIANO*      NOT AVBL
NEW ROADS*       N/A     74  74  98 CALM      29.97S FOG
GONZALES*        N/A     75  75 100 CALM      29.96S FOG
HAMMOND*       PTCLDY    75  72  88 CALM      29.99S
HOUMA*         MOCLDY    77  74  89 NE6       29.96R
PORT FOURCHON* SUNNY     84  73  70 E8        29.97S

$$

MSZ070-080>082-281200-
SOUTHERN MISSISSIPPI

CITY           SKY/WX    TMP DP  RH WIND       PRES   REMARKS
MCCOMB         PTCLDY    74  71  91 NE5       30.00R
GULFPORT       MOCLDY    77  73  87 CALM      29.98R
BILOXI         CLOUDY    77  73  86 NE3       29.98S
PASCAGOULA     CLOUDY    74  73  97 CALM      29.99R

$$

COASTAL OBSERVATIONS
LAKE AND NEARSHORE STATIONS

STATION/POSITION TIME  TEMP    WIND        PRES    WAVE
                       AIR SEA DIR/SP/G            HT/PER
                 (UTC) (F)     (DEG/KT/KT) (MB)    (FT/S)
PASCAGOULA       1100   79      30/  4/  6 1014.8
WAVELAND YACHT   1100   79      40/  4/  4 1014.5
GRAND ISLE       1100   83 83  110/  3/  6 1015.1
SOUTHWEST PASS   1100   84 88  100/ 10/ 12 1014.7
NEW CANAL        1100   80 84   80/  2/  4 1015.1
SHELL BEACH      1100   83 81   80/  2/  3 1014.6

OFFSHORE STATIONS

STATION/POSITION TIME  TEMP    WIND        PRES    WAVE
                       AIR SEA DIR/SP/G            HT/PER
                 (UTC) (F)     (DEG/KT/KT) (MB)    (FT/S)
64 S DAUPHIN ISL 1024   84 85   90/  8/ 10 1015.0

$$




USA.gov is the U.S. government's official web portal to all federal, state and local government web resources and services.